TimeCST,TemperatureF,Dew PointF,Humidity,Sea Level PressureIn,VisibilityMPH,Wind Direction,Wind SpeedMPH,Gust SpeedMPH,PrecipitationIn,Events,Conditions,WindDirDegrees,DateUTC
12:00 AM,80,74,77,29.95,12,ESE,5.8,,,,Partly Cloudy,110,2013-05-18 06:00:00
3:00 AM,79,75,83,29.91,12,ESE,5.8,,,,Scattered Clouds,110,2013-05-18 09:00:00
5:00 AM,78.8,75.2,89,29.92,6.2,Calm,Calm,-,N/A,,Mostly Cloudy,0,2013-05-18 11:00:00
6:00 AM,81,75,78,29.94,12,East,5.8,,,,Scattered Clouds,90,2013-05-18 12:00:00
6:00 AM,80.6,75.2,84,29.92,6.2,East,5.8,-,N/A,,Mostly Cloudy,90,2013-05-18 12:00:00
7:00 AM,84.2,75.2,74,29.95,6.2,East,9.2,-,N/A,,Mostly Cloudy,90,2013-05-18 13:00:00
8:00 AM,84.2,75.2,74,29.95,6.2,East,11.5,-,N/A,,Mostly Cloudy,100,2013-05-18 14:00:00
9:00 AM,87,76,61,29.97,12,East,9.2,,,,Partly Cloudy,100,2013-05-18 15:00:00
9:00 AM,87.8,75.2,66,29.96,6.2,East,9.2,-,N/A,,Scattered Clouds,100,2013-05-18 15:00:00
10:00 AM,87.8,77.0,70,29.96,6.2,East,9.2,-,N/A,,Scattered Clouds,90,2013-05-18 16:00:00
11:00 AM,87.8,75.2,66,29.95,6.2,East,10.4,-,N/A,,Scattered Clouds,80,2013-05-18 17:00:00
12:00 PM,89,76,58,29.94,12,ENE,12.7,,,,Partly Cloudy,70,2013-05-18 18:00:00
12:00 PM,87.8,77.0,70,29.93,6.2,ENE,12.7,-,N/A,,Mostly Cloudy,70,2013-05-18 18:00:00
1:00 PM,87.8,75.2,66,29.91,6.2,ENE,12.7,-,N/A,,Mostly Cloudy,70,2013-05-18 19:00:00
2:00 PM,87.8,75.2,66,29.89,6.2,East,12.7,-,N/A,,Mostly Cloudy,80,2013-05-18 20:00:00
3:00 PM,88,76,59,29.88,14,East,10.4,,,,Partly Cloudy,90,2013-05-18 21:00:00
3:00 PM,87.8,75.2,66,29.88,6.2,East,10.4,-,N/A,,Mostly Cloudy,90,2013-05-18 21:00:00
4:00 PM,86.0,75.2,70,29.87,6.2,East,11.5,-,N/A,,Mostly Cloudy,90,2013-05-18 22:00:00
5:00 PM,86.0,75.2,70,29.87,6.2,East,11.5,-,N/A,,Mostly Cloudy,90,2013-05-18 23:00:00
6:00 PM,84,76,71,29.89,12,East,9.2,,,,Scattered Clouds,90,2013-05-19 00:00:00
6:00 PM,84.2,75.2,74,29.89,6.2,East,9.2,-,N/A,,Mostly Cloudy,80,2013-05-19 00:00:00
9:00 PM,82,76,77,29.94,12,East,6.9,,,,Mostly Cloudy,100,2013-05-19 03:00:00